period_start,C,m1,H,J0,J1,J2,J3,J4,J5,JA,JB,JC,JD,JJ,JK,JN,#
2015-07-15 00:03:21,0.01,0.04,0.00,27.22,31.00,33.29,4.75,25.32,1015.64,2021.99,3448.00,3278.67,3564.88,349.98,342.65,9.99,0000 0000 0000 0000 000000
2015-07-15 00:08:22,0.03,0.04,0.00,27.21,30.99,33.29,4.71,25.31,1015.64,2021.99,3448.00,3278.29,3564.52,349.51,342.00,10.02,0000 0000 0000 0000 000000
2015-07-15 00:13:23,0.00,0.04,0.00,27.22,30.98,33.28,4.64,25.27,1015.64,2021.99,3448.00,3278.11,3564.17,349.80,342.39,10.04,0000 0000 0000 0000 000000
2015-07-15 00:18:24,0.00,0.04,0.00,27.22,30.98,33.28,4.70,25.34,1015.63,2022.00,3448.00,3278.14,3564.35,349.91,342.31,10.07,0000 0000 0000 0000 000000
2015-07-15 00:23:26,0.01,0.04,0.00,27.22,30.97,33.27,4.67,25.33,1015.64,2022.01,3447.99,3278.09,3564.13,350.05,342.56,10.10,0000 0000 0000 0000 000000
2015-07-15 00:28:27,0.00,0.04,0.00,27.22,30.97,33.28,4.69,25.45,1015.64,2022.00,3447.86,3278.00,3564.02,349.97,342.44,10.13,0000 0000 0000 0000 000000
2015-07-15 00:33:28,0.00,0.04,0.00,27.22,30.97,33.27,4.69,25.28,1015.64,2022.00,3447.71,3278.00,3564.00,349.97,342.44,10.16,0000 0000 0000 0000 000000
2015-07-15 00:38:29,0.01,0.05,0.00,27.22,30.97,33.27,4.66,25.27,1015.61,2022.00,3447.31,3278.00,3564.00,349.73,342.25,10.19,0000 0000 0000 0000 000000
2015-07-15 00:43:30,0.01,0.05,0.00,27.25,30.97,33.28,4.63,25.26,1015.55,2022.01,3447.08,3278.00,3563.99,349.78,342.32,10.22,0000 0000 0000 0000 000000
2015-07-15 00:48:32,0.00,0.05,0.00,27.25,30.97,33.27,4.65,25.35,1015.46,2022.02,3447.03,3277.99,3563.98,349.76,342.17,10.25,0000 0000 0000 0000 000000
2015-07-15 00:53:33,0.00,0.05,0.00,27.25,30.97,33.27,4.72,25.31,1015.36,2022.01,3447.01,3277.98,3563.97,350.06,342.33,10.28,0000 0000 0000 0000 000000
2015-07-15 00:58:34,0.01,0.05,0.00,27.25,30.97,33.27,4.69,25.42,1015.33,2022.03,3447.00,3277.95,3563.74,349.36,341.93,10.31,0000 0000 0000 0000 000000
2015-07-15 01:03:35,0.01,0.05,0.00,27.25,30.97,33.27,4.68,25.33,1015.22,2022.01,3446.98,3277.86,3563.23,350.08,342.61,10.34,0000 0000 0000 0000 000000
2015-07-15 01:08:36,0.02,0.05,0.00,27.27,30.97,33.27,4.76,25.47,1015.17,2022.05,3446.98,3277.78,3563.15,350.22,342.58,10.37,0000 0000 0000 0000 000000
2015-07-15 01:13:38,0.02,0.05,0.00,27.27,30.97,33.27,4.69,25.41,1015.17,2022.01,3446.92,3277.35,3563.02,349.79,341.87,10.40,0000 0000 0000 0000 000000
2015-07-15 01:18:39,0.01,0.05,0.00,27.27,30.97,33.26,4.69,25.32,1015.15,2022.05,3446.78,3277.33,3563.01,350.12,342.47,10.43,0000 0000 0000 0000 000000
2015-07-15 01:23:40,0.02,0.05,0.00,27.28,30.97,33.24,4.64,25.44,1015.15,2022.04,3446.19,3277.04,3563.00,349.75,342.13,10.45,0000 0000 0000 0000 000000
2015-07-15 01:28:41,0.00,0.05,0.00,27.30,30.97,33.25,4.69,25.44,1015.15,2022.01,3446.01,3277.01,3562.96,349.66,341.85,10.48,0000 0000 0000 0000 000000
2015-07-15 01:33:42,0.00,0.05,0.00,27.30,30.97,33.26,4.63,25.36,1015.15,2022.02,3446.01,3277.00,3562.95,349.88,342.16,10.51,0000 0000 0000 0000 000000
2015-07-15 01:38:44,0.02,0.05,0.00,27.31,30.98,33.26,4.71,25.34,1015.15,2022.02,3446.00,3277.00,3562.63,349.85,341.89,10.54,0000 0000 0000 0000 000000
2015-07-15 01:43:45,-0.00,0.05,0.00,27.32,30.99,33.26,4.66,25.31,1015.15,2022.01,3445.97,3277.00,3562.10,349.65,341.89,10.57,0000 0000 0000 0000 000000
2015-07-15 01:48:46,0.01,0.05,0.00,27.32,31.00,33.27,4.67,25.30,1015.13,2022.01,3445.91,3276.96,3562.01,350.10,342.30,10.60,0000 0000 0000 0000 000000
2015-07-15 01:53:47,0.03,0.05,0.00,27.34,31.00,33.27,4.75,25.29,1015.09,2022.00,3445.47,3276.79,3562.00,349.65,341.82,10.63,0000 0000 0000 0000 000000
2015-07-15 01:58:48,0.01,0.05,0.00,27.35,31.00,33.25,4.76,25.30,1014.95,2022.00,3445.09,3276.65,3561.99,350.38,342.47,10.66,0000 0000 0000 0000 000000
2015-07-15 02:03:50,0.01,0.05,0.00,27.37,31.00,33.27,4.66,25.23,1014.75,2022.00,3445.03,3276.35,3561.96,350.46,342.58,10.69,0000 0000 0000 0000 000000
2015-07-15 02:08:51,0.02,0.05,0.00,27.37,31.00,33.27,4.67,25.23,1014.71,2022.00,3445.00,3276.06,3561.70,349.92,342.12,10.72,0000 0000 0000 0000 000000
2015-07-15 02:13:52,0.01,0.05,0.00,27.40,31.01,33.27,4.67,25.14,1014.70,2022.01,3444.99,3276.02,3561.29,350.15,342.03,10.75,0000 0000 0000 0000 000000
2015-07-15 02:18:53,0.00,0.05,0.00,27.40,31.02,33.28,4.65,25.26,1014.68,2022.00,3444.99,3276.00,3561.02,349.92,341.95,10.78,0000 0000 0000 0000 000000
2015-07-15 02:23:54,0.01,0.05,0.00,27.41,31.02,33.28,4.67,25.34,1014.66,2022.00,3444.71,3275.99,3560.99,350.11,342.10,10.81,0000 0000 0000 0000 000000
2015-07-15 02:28:56,0.01,0.05,0.00,27.43,31.02,33.30,4.68,25.38,1014.67,2022.00,3444.30,3275.96,3560.98,350.26,342.14,10.84,0000 0000 0000 0000 000000
2015-07-15 02:33:57,0.01,0.05,0.00,27.45,31.03,33.29,4.71,25.27,1014.66,2022.00,3444.13,3275.87,3560.90,349.78,341.78,10.86,0000 0000 0000 0000 000000
2015-07-15 02:38:58,0.01,0.05,0.00,27.46,31.05,33.30,4.70,25.26,1014.66,2022.00,3444.06,3275.76,3560.75,349.84,341.61,10.89,0000 0000 0000 0000 000000
2015-07-15 02:43:59,0.02,0.05,0.00,27.47,31.05,33.31,4.70,25.38,1014.67,2022.00,3444.02,3275.49,3560.32,349.89,341.67,10.92,0000 0000 0000 0000 000000
2015-07-15 02:49:01,0.01,0.05,0.00,27.49,31.05,33.32,4.72,25.30,1014.68,2021.99,3444.00,3275.16,3560.06,350.10,341.90,10.95,0000 0000 0000 0000 000000
2015-07-15 02:54:02,0.00,0.05,0.00,27.50,31.07,33.33,4.72,25.28,1014.67,2021.98,3444.00,3275.06,3560.04,350.29,342.12,10.98,0000 0000 0000 0000 000000
2015-07-15 02:59:04,0.00,0.05,0.00,27.51,31.07,33.34,4.62,25.18,1014.67,2021.97,3443.96,3275.01,3560.00,349.89,341.71,11.01,0000 0000 0000 0000 000000
2015-07-15 03:04:05,0.01,0.05,0.00,27.53,31.08,33.35,4.59,25.18,1014.66,2021.98,3443.71,3275.00,3559.99,349.65,341.45,11.04,0000 0000 0000 0000 000000
2015-07-15 03:09:06,0.00,0.05,0.00,27.55,31.10,33.36,4.65,25.26,1014.67,2021.96,3443.30,3274.99,3559.96,349.48,341.41,11.07,0000 0000 0000 0000 000000
2015-07-15 03:14:07,0.01,0.06,0.00,27.56,31.10,33.36,4.68,25.30,1014.66,2021.95,3443.06,3274.96,3559.71,349.90,341.75,11.10,0000 0000 0000 0000 000000
2015-07-15 03:19:09,0.02,0.06,0.00,27.57,31.11,33.37,4.66,25.18,1014.66,2021.90,3443.00,3274.67,3559.10,349.94,341.67,11.13,0000 0000 0000 0000 000000
2015-07-15 03:24:10,-0.02,0.06,0.00,27.58,31.12,33.38,4.70,25.40,1014.66,2021.75,3442.99,3274.23,3559.00,350.02,341.57,11.16,0000 0000 0000 0000 000000
2015-07-15 03:29:11,-0.01,0.05,0.00,27.60,31.12,33.39,4.76,25.39,1014.65,2021.48,3442.67,3274.01,3558.98,350.20,341.65,11.19,0000 0000 0000 0000 000000
2015-07-15 03:34:13,0.00,0.06,0.00,27.61,31.14,33.41,4.71,25.14,1014.66,2021.41,3442.12,3274.00,3558.55,350.12,341.90,11.22,0000 0000 0000 0000 000000
2015-07-15 03:39:14,-0.02,0.05,0.00,27.63,31.15,33.41,4.68,25.25,1014.64,2021.18,3442.01,3273.96,3558.12,350.08,341.71,11.24,0000 0000 0000 0000 000000
2015-07-15 03:44:16,0.01,0.05,0.00,27.65,31.16,33.42,4.66,25.14,1014.65,2021.20,3442.00,3273.91,3558.01,349.85,341.55,11.27,0000 0000 0000 0000 000000
2015-07-15 03:49:17,0.02,0.06,0.00,27.65,31.17,33.43,4.64,25.12,1014.65,2021.20,3441.99,3273.56,3558.00,350.20,341.80,11.30,0000 0000 0000 0000 000000
2015-07-15 03:54:19,0.02,0.06,0.00,27.66,31.18,33.44,4.69,25.26,1014.60,2021.15,3441.85,3273.11,3557.99,350.21,341.88,11.33,0000 0000 0000 0000 000000
2015-07-15 03:59:20,0.01,0.06,0.00,27.68,31.20,33.45,4.74,25.18,1014.41,2021.08,3441.22,3273.00,3557.82,350.17,341.58,11.36,0000 0000 0000 0000 000000
2015-07-15 04:04:21,0.01,0.06,0.00,27.70,31.21,33.47,4.64,25.24,1014.22,2021.04,3441.01,3272.99,3557.27,349.52,340.93,11.39,0000 0000 0000 0000 000000
2015-07-15 04:09:23,0.01,0.06,0.00,27.71,31.22,33.48,4.63,25.13,1014.24,2021.08,3441.00,3272.98,3557.09,350.25,341.65,11.42,0000 0000 0000 0000 000000
2015-07-15 04:14:24,0.01,0.06,0.00,27.74,31.23,33.49,4.61,25.12,1014.42,2021.06,3440.97,3272.93,3557.00,350.12,341.52,11.45,0000 0000 0000 0000 000000
2015-07-15 04:19:25,-0.01,0.06,0.00,27.75,31.25,33.50,4.65,25.29,1014.39,2021.03,3440.96,3272.74,3557.00,349.64,341.15,11.48,0000 0000 0000 0000 000000
2015-07-15 04:24:26,0.04,0.06,0.00,27.76,31.26,33.52,4.58,25.38,1014.32,2021.00,3440.71,3272.25,3556.87,349.14,340.54,11.51,0000 0000 0000 0000 000000
2015-07-15 04:29:27,0.03,0.06,0.00,27.78,31.27,33.52,4.72,25.32,1014.21,2021.00,3440.05,3272.01,3556.14,349.95,341.30,11.54,0000 0000 0000 0000 000000
2015-07-15 04:34:28,0.00,0.06,0.00,27.80,31.28,33.54,4.64,25.14,1014.48,2021.00,3440.00,3271.99,3556.01,349.91,341.45,11.57,0000 0000 0000 0000 000000
2015-07-15 04:39:30,0.03,0.06,0.00,27.81,31.30,33.55,4.69,25.16,1014.36,2021.00,3439.77,3271.72,3555.90,349.82,341.21,11.60,0000 0000 0000 0000 000000
2015-07-15 04:44:31,0.05,0.06,0.00,27.83,31.31,33.56,4.65,25.13,1014.21,2021.00,3439.07,3271.05,3555.15,349.36,340.76,11.63,0000 0000 0000 0000 000000
2015-07-15 04:49:32,0.01,0.06,0.00,27.86,31.32,33.57,4.73,25.24,1014.19,2020.99,3438.84,3270.95,3554.99,350.28,341.57,11.66,0000 0000 0000 0000 000000
2015-07-15 04:54:34,0.04,0.06,0.00,27.87,31.33,33.59,4.64,25.24,1014.18,2020.97,3438.18,3270.56,3554.62,349.74,341.04,11.68,0000 0000 0000 0000 000000
2015-07-15 04:59:35,0.03,0.06,0.00,27.88,31.35,33.60,4.62,25.23,1014.18,2020.94,3438.03,3270.11,3554.09,349.62,340.73,11.71,0000 0000 0000 0000 000000
2015-07-15 05:04:36,-0.05,0.06,0.00,27.90,31.36,33.60,4.64,25.19,1014.18,2020.71,3438.00,3270.00,3554.00,350.23,341.60,11.74,0000 0000 0000 0000 000000
2015-07-15 05:09:38,-0.00,0.06,0.00,27.92,31.37,33.63,4.67,25.16,1014.18,2020.63,3438.00,3270.00,3554.00,350.00,341.02,11.77,0000 0000 0000 0000 000000
2015-07-15 05:14:39,-0.04,0.06,0.00,27.95,31.38,33.64,4.70,25.17,1014.19,2020.38,3437.96,3269.99,3553.96,350.01,341.11,11.80,0000 0000 0000 0000 000000
2015-07-15 05:19:40,-0.01,0.06,0.00,27.97,31.40,33.64,4.66,25.20,1014.19,2020.21,3437.65,3269.94,3553.73,350.20,341.28,11.83,0000 0000 0000 0000 000000
2015-07-15 05:24:41,0.04,0.06,0.00,27.99,31.41,33.66,4.66,25.33,1014.19,2020.04,3437.08,3269.40,3553.09,349.72,341.00,11.86,0000 0000 0000 0000 000000
2015-07-15 05:29:43,0.01,0.06,0.00,28.00,31.42,33.67,4.66,25.26,1014.23,2020.02,3436.99,3269.02,3553.00,350.10,341.19,11.89,0000 0000 0000 0000 000000
2015-07-15 05:34:44,0.01,0.06,0.00,28.02,31.45,33.69,4.71,25.18,1014.36,2020.00,3436.90,3269.00,3552.95,349.59,340.81,11.92,0000 0000 0000 0000 000000
2015-07-15 05:39:45,0.04,0.06,0.00,28.04,31.46,33.71,4.68,25.18,1014.49,2020.00,3436.34,3268.83,3552.33,350.45,341.70,11.95,0000 0000 0000 0000 000000
2015-07-15 05:44:47,0.03,0.07,0.00,28.06,31.47,33.73,4.59,25.12,1014.57,2020.00,3436.00,3268.19,3552.01,349.11,340.47,11.98,0000 0000 0000 0000 000000
2015-07-15 05:49:48,0.00,0.07,0.00,28.07,31.49,33.74,4.63,25.12,1014.62,2020.00,3435.92,3268.02,3551.99,349.64,340.84,12.01,0000 0000 0000 0000 000000
2015-07-15 05:54:49,0.04,0.07,0.00,28.08,31.50,33.75,4.68,25.18,1014.61,2020.00,3435.22,3267.97,3551.45,350.05,341.21,12.04,0000 0000 0000 0000 000000
2015-07-15 05:59:50,0.04,0.07,0.00,28.10,31.52,33.77,4.63,25.08,1014.64,2020.00,3434.99,3267.41,3551.01,349.71,340.93,12.06,0000 0000 0000 0000 000000
2015-07-15 06:04:51,0.05,0.07,0.00,28.12,31.53,33.78,4.68,25.21,1014.66,2019.99,3434.47,3267.01,3550.52,349.66,341.17,12.09,0000 0000 0000 0000 000000
2015-07-15 06:09:53,0.03,0.07,0.00,28.13,31.55,33.81,4.70,25.12,1014.66,2019.98,3433.99,3266.66,3550.00,349.90,340.95,12.12,0000 0000 0000 0000 000000
2015-07-15 06:14:54,0.04,0.07,0.00,28.16,31.57,33.82,4.70,25.05,1014.66,2019.95,3433.52,3266.03,3549.53,350.67,341.71,12.15,0000 0000 0000 0000 000000
2015-07-15 06:19:55,0.01,0.07,0.00,28.18,31.58,33.84,4.65,25.21,1014.66,2019.96,3433.01,3265.97,3549.02,349.59,340.64,12.18,0000 0000 0000 0000 000000
2015-07-15 06:24:56,0.02,0.07,0.00,28.20,31.60,33.84,4.67,25.39,1014.67,2019.92,3432.86,3265.53,3548.90,350.00,341.08,12.21,0000 0000 0000 0000 000000
2015-07-15 06:29:58,0.00,0.07,0.00,28.22,31.61,33.86,4.70,25.26,1014.68,2019.65,3432.09,3265.01,3548.15,350.02,341.11,12.24,0000 0000 0000 0000 000000
2015-07-15 06:34:59,-0.04,0.07,0.00,28.22,31.63,33.88,4.72,25.26,1014.73,2019.51,3432.01,3265.00,3548.00,350.50,341.54,12.27,0000 0000 0000 0000 000000
2015-07-15 06:40:00,0.01,0.07,0.00,28.25,31.65,33.90,4.64,25.26,1014.87,2019.28,3431.91,3264.72,3547.87,350.11,340.90,12.30,0000 0000 0000 0000 000000
2015-07-15 06:45:01,0.04,0.07,0.00,28.26,31.66,33.91,4.67,25.32,1015.07,2019.12,3431.19,3264.09,3547.15,349.85,340.96,12.33,0000 0000 0000 0000 000000
2015-07-15 06:50:03,-0.01,0.07,0.00,28.28,31.67,33.93,4.65,25.19,1015.11,2019.02,3431.00,3264.00,3547.00,349.86,340.90,12.36,0000 0000 0000 0000 000000
2015-07-15 06:55:04,0.02,0.07,0.00,28.30,31.70,33.94,4.63,25.11,1015.14,2019.02,3430.83,3263.95,3546.86,349.83,340.75,12.39,0000 0000 0000 0000 000000
2015-07-15 07:00:06,0.04,0.08,0.00,28.32,31.71,33.96,4.67,25.12,1015.15,2019.00,3430.24,3263.69,3546.24,349.84,340.94,12.42,0000 0000 0000 0000 000000
2015-07-15 07:05:07,0.03,0.08,0.00,28.35,31.72,33.98,4.73,25.17,1015.15,2019.00,3430.13,3263.21,3546.01,350.18,341.20,12.45,0000 0000 0000 0000 000000
2015-07-15 07:10:08,-0.00,0.08,0.00,28.37,31.75,33.99,4.66,25.13,1015.15,2018.99,3430.01,3263.00,3545.98,349.93,340.86,12.47,0000 0000 0000 0000 000000
2015-07-15 07:15:09,0.00,0.08,0.00,28.38,31.76,34.01,4.66,25.13,1015.15,2018.96,3429.99,3263.00,3545.77,350.05,341.09,12.50,0000 0000 0000 0000 000000
2015-07-15 07:20:11,0.01,0.08,0.00,28.41,31.77,34.02,4.59,25.15,1015.15,2018.94,3429.95,3263.00,3545.21,349.77,340.84,12.53,0000 0000 0000 0000 000000
2015-07-15 07:25:12,-0.02,0.08,0.00,28.43,31.80,34.04,4.67,25.34,1015.17,2018.64,3429.31,3262.67,3545.01,350.01,340.96,12.56,0000 0000 0000 0000 000000
2015-07-15 07:30:14,-0.04,0.08,0.00,28.46,31.81,34.05,4.67,25.19,1015.17,2018.13,3429.01,3262.06,3544.88,349.57,340.45,12.59,0000 0000 0000 0000 000000
2015-07-15 07:35:15,0.00,0.08,0.00,28.49,31.82,34.08,4.73,25.25,1015.18,2018.01,3429.00,3262.00,3544.43,350.52,341.35,12.62,0000 0000 0000 0000 000000
2015-07-15 07:40:16,0.00,0.08,0.00,28.52,31.85,34.08,4.58,25.25,1015.19,2018.00,3428.98,3262.00,3544.10,349.63,340.57,12.65,0000 0000 0000 0000 000000
2015-07-15 07:45:17,0.01,0.08,0.00,28.55,31.86,34.10,4.54,25.19,1015.18,2018.00,3428.66,3261.98,3544.00,348.92,339.85,12.68,0000 0000 0000 0000 000000
2015-07-15 07:50:19,0.01,0.08,0.00,28.58,31.88,34.12,4.59,25.06,1015.19,2018.00,3428.10,3261.87,3544.00,349.26,340.10,12.71,0000 0000 0000 0000 000000
2015-07-15 07:55:20,0.03,0.08,0.00,28.61,31.90,34.14,4.68,25.17,1015.29,2018.00,3428.01,3261.36,3543.97,350.01,341.08,12.74,0000 0000 0000 0000 000000
2015-07-15 08:00:21,0.00,0.08,0.00,28.63,31.91,34.16,4.64,25.18,1015.19,2017.99,3428.00,3261.10,3543.89,350.37,341.24,12.77,0000 0000 0000 0000 000000
2015-07-15 08:05:23,0.01,0.08,0.00,28.66,31.93,34.17,4.64,25.02,1015.29,2017.98,3427.98,3261.02,3543.49,349.97,340.67,12.80,0000 0000 0000 0000 000000
2015-07-15 08:10:24,0.01,0.08,0.00,28.68,31.95,34.18,4.58,25.13,1015.32,2017.96,3427.76,3261.00,3543.06,349.43,340.17,12.83,0000 0000 0000 0000 000000
2015-07-15 08:15:25,0.01,0.08,0.00,28.71,31.97,34.20,4.65,25.12,1015.30,2017.93,3427.17,3260.99,3543.00,350.01,340.68,12.86,0000 0000 0000 0000 000000
2015-07-15 08:20:27,-0.00,0.08,0.00,28.74,31.99,34.23,4.64,25.11,1015.22,2017.87,3427.04,3260.92,3543.00,349.24,339.87,12.88,0000 0000 0000 0000 000000
2015-07-15 08:25:28,-0.01,0.08,0.00,28.77,32.01,34.24,4.59,25.19,1015.19,2017.69,3427.00,3260.55,3542.91,349.78,340.35,12.91,0000 0000 0000 0000 000000
2015-07-15 08:30:29,-0.02,0.08,0.00,28.80,32.02,34.26,4.62,25.12,1015.25,2017.26,3426.98,3260.03,3542.30,349.92,340.50,12.94,0000 0000 0000 0000 000000
2015-07-15 08:35:30,-0.02,0.08,0.00,28.81,32.05,34.29,4.64,25.07,1015.28,2017.15,3426.97,3260.00,3542.09,350.07,340.50,12.97,0000 0000 0000 0000 000000
2015-07-15 08:40:32,0.00,0.08,0.00,28.83,32.07,34.30,4.55,25.16,1015.50,2017.05,3426.68,3260.00,3542.01,349.30,339.93,13.00,0000 0000 0000 0000 000000
2015-07-15 08:45:33,0.01,0.08,0.00,28.84,32.09,34.32,4.67,25.16,1015.31,2017.01,3426.11,3259.96,3541.99,350.13,340.65,13.03,0000 0000 0000 0000 000000
2015-07-15 08:50:34,0.00,0.08,0.00,28.86,32.11,34.34,4.70,25.02,1015.38,2017.00,3426.01,3259.90,3541.95,350.31,340.73,13.06,0000 0000 0000 0000 000000
2015-07-15 08:55:35,0.02,0.08,0.00,28.89,32.13,34.37,4.68,25.07,1015.47,2017.00,3426.00,3259.57,3541.78,350.45,340.77,13.09,0000 0000 0000 0000 000000
2015-07-15 09:00:37,0.02,0.08,0.00,28.90,32.15,34.39,4.70,25.09,1015.58,2017.00,3425.98,3259.12,3541.20,350.05,340.50,13.12,0000 0000 0000 0000 000000
2015-07-15 09:05:38,0.00,0.08,0.00,28.90,32.17,34.42,4.69,25.10,1015.62,2017.00,3425.93,3259.01,3541.05,350.12,340.69,13.15,0000 0000 0000 0000 000000
2015-07-15 09:10:39,0.01,0.08,0.00,28.90,32.20,34.43,4.64,25.04,1015.64,2017.00,3425.58,3259.00,3541.01,349.42,339.91,13.18,0000 0000 0000 0000 000000
2015-07-15 09:15:40,0.01,0.08,0.00,28.90,32.21,34.46,4.63,25.02,1015.65,2016.99,3425.21,3258.99,3541.00,349.78,340.38,13.21,0000 0000 0000 0000 000000
2015-07-15 09:20:41,0.00,0.08,0.00,28.90,32.23,34.48,4.63,25.10,1015.64,2016.97,3425.02,3258.98,3540.98,350.17,340.93,13.24,0000 0000 0000 0000 000000
2015-07-15 09:25:42,-0.02,0.08,0.00,28.90,32.25,34.50,4.59,25.18,1015.66,2016.67,3425.00,3258.60,3540.44,349.80,340.36,13.27,0000 0000 0000 0000 000000
2015-07-15 09:30:43,-0.02,0.08,0.00,28.90,32.26,34.51,4.68,25.00,1015.66,2016.32,3424.98,3258.11,3540.05,350.48,340.97,13.29,0000 0000 0000 0000 000000
2015-07-15 09:35:45,-0.02,0.08,0.00,28.89,32.28,34.54,4.59,25.03,1015.67,2016.18,3424.88,3258.01,3540.01,349.46,340.01,13.32,0000 0000 0000 0000 000000
2015-07-15 09:40:46,-0.00,0.08,0.00,28.89,32.30,34.56,4.60,25.04,1015.65,2016.07,3424.54,3258.00,3540.00,350.27,340.86,13.35,0000 0000 0000 0000 000000
2015-07-15 09:45:47,0.01,0.08,0.00,28.89,32.31,34.57,4.62,24.97,1015.69,2016.05,3424.10,3258.00,3540.00,349.35,339.96,13.38,0000 0000 0000 0000 000000
2015-07-15 09:50:48,0.01,0.08,0.00,28.89,32.32,34.58,4.71,25.04,1015.81,2016.01,3424.01,3257.94,3539.80,350.22,340.61,13.41,0000 0000 0000 0000 000000
2015-07-15 09:55:49,0.03,0.08,0.00,28.90,32.34,34.61,4.61,25.10,1015.96,2016.00,3424.00,3257.52,3539.14,349.78,340.67,13.44,0000 0000 0000 0000 000000
2015-07-15 10:00:51,0.02,0.08,0.00,28.90,32.35,34.61,4.65,25.03,1016.09,2016.00,3423.95,3257.07,3539.00,349.83,340.55,13.47,0000 0000 0000 0000 000000
2015-07-15 10:05:52,0.02,0.08,0.00,28.88,32.37,34.62,4.60,25.05,1016.07,2016.00,3423.44,3257.00,3539.00,349.87,340.59,13.50,0000 0000 0000 0000 000000
2015-07-15 10:10:54,0.00,0.08,0.00,28.89,32.37,34.64,4.69,25.07,1016.13,2016.00,3423.13,3257.00,3538.96,349.94,340.78,13.53,0000 0000 0000 0000 000000
2015-07-15 10:15:55,0.01,0.08,0.00,28.89,32.39,34.65,4.64,25.07,1016.13,2015.99,3423.01,3256.98,3538.53,349.73,340.49,13.56,0000 0000 0000 0000 000000
2015-07-15 10:20:56,-0.00,0.08,0.00,28.87,32.40,34.66,4.67,24.98,1016.13,2015.98,3423.00,3256.96,3538.28,349.79,340.45,13.59,0000 0000 0000 0000 000000
2015-07-15 10:25:57,0.02,0.08,0.00,28.87,32.40,34.66,4.67,25.30,1016.13,2015.95,3422.99,3256.78,3538.08,349.90,340.67,13.62,0000 0000 0000 0000 000000
2015-07-15 10:30:58,0.01,0.08,0.00,28.87,32.41,34.67,4.62,24.95,1016.13,2015.93,3422.97,3256.36,3538.00,349.33,340.23,13.65,0000 0000 0000 0000 000000
2015-07-15 10:36:00,-0.00,0.08,0.00,28.86,32.42,34.68,4.67,24.99,1016.14,2015.92,3422.98,3256.37,3538.00,349.85,340.48,13.67,0000 0000 0000 0000 000000
2015-07-15 10:41:01,-0.01,0.08,0.00,28.85,32.42,34.69,4.70,25.04,1016.13,2015.81,3422.80,3256.14,3538.00,350.08,340.74,13.70,0000 0000 0000 0000 000000
2015-07-15 10:46:02,0.01,0.08,0.00,28.85,32.42,34.69,4.71,25.02,1016.18,2015.73,3422.65,3256.04,3537.99,349.93,340.74,13.73,0000 0000 0000 0000 000000
2015-07-15 10:51:03,-0.02,0.08,0.00,28.84,32.43,34.71,4.64,24.97,1016.20,2015.59,3422.60,3256.05,3537.98,349.79,340.63,13.76,0000 0000 0000 0000 000000
2015-07-15 10:56:05,-0.01,0.08,0.00,28.82,32.44,34.70,4.70,25.09,1016.15,2015.42,3422.18,3256.01,3537.95,349.89,340.65,13.79,0000 0000 0000 0000 000000
2015-07-15 11:01:06,0.01,0.08,0.00,28.82,32.45,34.72,4.56,25.02,1016.19,2015.43,3422.07,3256.00,3537.89,349.36,340.39,13.82,0000 0000 0000 0000 000000
2015-07-15 11:06:07,-0.02,0.08,0.00,28.80,32.45,34.71,4.63,24.98,1016.16,2015.29,3422.01,3256.00,3537.52,349.64,340.48,13.85,0000 0000 0000 0000 000000
2015-07-15 11:11:09,-0.01,0.08,0.00,28.80,32.45,34.72,4.70,25.00,1016.18,2015.18,3422.00,3255.99,3537.20,350.07,340.87,13.88,0000 0000 0000 0000 000000
2015-07-15 11:16:10,0.00,0.08,0.00,28.79,32.45,34.73,4.72,25.07,1016.42,2015.12,3422.00,3255.98,3537.08,350.17,341.22,13.91,0000 0000 0000 0000 000000
2015-07-15 11:21:11,-0.00,0.08,0.00,28.77,32.45,34.73,4.70,24.97,1016.56,2015.12,3422.00,3255.99,3537.10,350.51,341.43,13.94,0000 0000 0000 0000 000000
2015-07-15 11:26:12,0.00,0.08,0.00,28.77,32.45,34.72,4.66,25.14,1016.58,2015.14,3421.98,3255.97,3537.06,350.07,341.19,13.97,0000 0000 0000 0000 000000
2015-07-15 11:31:13,0.01,0.08,0.00,28.75,32.45,34.71,4.54,24.93,1016.59,2015.16,3421.98,3255.97,3537.02,349.26,340.37,14.00,0000 0000 0000 0000 000000
2015-07-15 11:36:14,-0.00,0.08,0.00,28.73,32.45,34.73,4.66,24.96,1016.62,2015.20,3421.98,3255.98,3537.03,350.10,341.46,14.03,0000 0000 0000 0000 000000
2015-07-15 11:41:15,-0.01,0.08,0.00,28.72,32.45,34.74,4.60,24.98,1016.62,2015.19,3421.98,3255.97,3537.01,350.37,341.49,14.06,0000 0000 0000 0000 000000
2015-07-15 11:46:17,0.00,0.08,0.00,28.71,32.45,34.74,4.65,24.95,1016.62,2015.14,3421.96,3255.96,3537.01,350.37,341.60,14.08,0000 0000 0000 0000 000000
2015-07-15 11:51:18,0.03,0.08,0.00,28.70,32.45,34.74,4.69,25.05,1016.62,2015.31,3421.95,3255.98,3537.00,350.28,341.33,14.11,0000 0000 0000 0000 000000
2015-07-15 11:56:19,0.03,0.08,0.00,28.67,32.45,34.75,4.64,25.04,1016.62,2015.49,3421.98,3255.98,3537.03,350.12,341.32,14.14,0000 0000 0000 0000 000000
2015-07-15 12:01:21,-0.01,0.08,0.00,28.66,32.44,34.74,4.64,24.99,1016.62,2015.49,3421.96,3255.99,3537.01,349.86,340.97,14.17,0000 0000 0000 0000 000000
2015-07-15 12:06:22,-0.02,0.08,0.00,28.65,32.43,34.75,4.70,25.02,1016.60,2015.33,3421.94,3255.99,3537.01,350.35,341.52,14.20,0000 0000 0000 0000 000000
2015-07-15 12:11:23,0.04,0.08,0.00,28.62,32.42,34.74,4.63,24.98,1016.58,2015.49,3421.96,3255.99,3537.01,349.59,340.77,14.23,0000 0000 0000 0000 000000
2015-07-15 12:16:24,-0.01,0.08,0.00,28.60,32.42,34.74,4.66,25.04,1016.54,2015.54,3421.98,3255.99,3537.03,349.52,340.75,14.26,0000 0000 0000 0000 000000
2015-07-15 12:21:26,0.02,0.08,0.00,28.60,32.42,34.75,4.67,25.05,1016.40,2015.73,3421.98,3255.99,3537.05,349.62,340.82,14.29,0000 0000 0000 0000 000000
2015-07-15 12:26:27,-0.01,0.08,0.00,28.57,32.41,34.74,4.61,25.22,1016.50,2015.65,3421.96,3255.99,3537.03,349.72,340.77,14.32,0000 0000 0000 0000 000000
2015-07-15 12:31:28,0.03,0.08,0.00,28.55,32.40,34.74,4.70,25.17,1016.60,2015.73,3421.98,3255.99,3537.08,349.97,341.18,14.35,0000 0000 0000 0000 000000
2015-07-15 12:36:30,0.01,0.08,0.00,28.52,32.40,34.72,4.73,25.10,1016.60,2015.90,3421.98,3255.99,3537.16,350.33,341.58,14.38,0000 0000 0000 0000 000000
2015-07-15 12:41:31,0.00,0.08,0.00,28.52,32.39,34.73,4.71,25.07,1016.55,2015.92,3421.98,3255.99,3537.17,350.18,341.53,14.41,0000 0000 0000 0000 000000
2015-07-15 12:46:33,-0.01,0.08,0.00,28.49,32.37,34.73,4.66,25.01,1016.47,2015.93,3421.99,3255.99,3537.38,350.17,341.47,14.44,0000 0000 0000 0000 000000
2015-07-15 12:51:34,0.01,0.08,0.00,28.47,32.37,34.75,4.69,25.02,1016.24,2015.93,3421.99,3255.99,3537.15,350.08,341.46,14.47,0000 0000 0000 0000 000000
2015-07-15 12:56:35,-0.00,0.08,0.00,28.45,32.36,34.75,4.69,25.16,1016.19,2015.96,3421.99,3256.01,3537.41,349.76,341.09,14.49,0000 0000 0000 0000 000000
2015-07-15 13:01:36,-0.00,0.08,0.00,28.43,32.35,34.74,4.68,25.11,1016.18,2015.98,3421.99,3256.02,3537.78,350.03,341.36,14.52,0000 0000 0000 0000 000000